Location: Karcze
(52.0945°N, 22.4786°E)
Time: 20:28:42
(UTC+00:00)

Transit 2A Rocket - Pass Details

Date: 29 July 2021
Orbit: 586 x 917 km, 66.7° (Epoch: 27 September)

Event Time Altitude Azimuth Distance (km) Brightness Sun altitude
Rises 22:54:48 0° 313° (NW) 3,264 8.8 -19.3°
Reaches altitude 10° 22:57:34 10° 300° (WNW) 2,389 7.8 -19.2°
Maximum altitude 23:01:50 23° 249° (WSW) 1,714 6.5 -19.2°
Enters shadow 23:02:52 22° 233° (SW) 1,778 6.5 -19.2°
Drops below altitude 10° 23:06:18 10° 199° (SSW) 2,525 - -19.1°
Sets 23:09:20 0° 186° (S) 3,496 - -19.0°
